• In Russia
  • List of Countries
  • For 7 days
  • Water Temperature
  • Weather Map
  • Weather Widgets
  • user-avatar
    Login

    Hourly Weather Zaranj

    Today, 8 December, Sunday

    Time Temperature Precipitation Wind Pressure Humidity
    00:00 +12°C° 0 mm 0 mps 722 mmHg 39%
    01:00 +13°C° 0 mm 1 mps 722 mmHg 40%
    02:00 +13°C° 0 mm 1 mps 721 mmHg 39%
    03:00 +13°C° 0 mm 1 mps 721 mmHg 39%
    04:00 +13°C° 0 mm 1 mps 721 mmHg 38%
    05:00 +12°C° 0 mm 1 mps 721 mmHg 39%
    06:00 +12°C° 0 mm 1 mps 722 mmHg 39%
    07:00 +12°C° 0 mm 1 mps 722 mmHg 40%
    08:00 +14°C° 0 mm 2 mps 722 mmHg 34%
    09:00 +16°C° 0 mm 2 mps 722 mmHg 29%
    10:00 +18°C° 0 mm 2 mps 722 mmHg 23%
    11:00 +20°C° 0 mm 3 mps 721 mmHg 22%
    12:00 +21°C° 0 mm 3 mps 721 mmHg 22%
    13:00 +22°C° 0 mm 3 mps 720 mmHg 21%
    14:00 +22°C° 0 mm 3 mps 720 mmHg 23%
    15:00 +22°C° 0 mm 3 mps 719 mmHg 24%
    16:00 +22°C° 0 mm 3 mps 719 mmHg 26%
    17:00 +21°C° 0.1 mm 3 mps 719 mmHg 33%
    18:00 +20°C° 0.1 mm 3 mps 719 mmHg 39%
    19:00 +19°C° 0.1 mm 3 mps 719 mmHg 46%
    20:00 +18°C° 0 mm 3 mps 719 mmHg 49%
    21:00 +18°C° 0 mm 3 mps 719 mmHg 52%
    22:00 +17°C° 0 mm 4 mps 719 mmHg 54%
    23:00 +17°C° 0 mm 3 mps 719 mmHg 58%

    Tomorrow, 9 December, Monday

    Time Temperature Precipitation Wind Pressure Humidity
    00:00 +16°C° 0 mm 3 mps 719 mmHg 61%
    01:00 +16°C° 0 mm 3 mps 719 mmHg 64%
    02:00 +15°C° 0 mm 2 mps 718 mmHg 66%
    03:00 +15°C° 0 mm 2 mps 718 mmHg 68%
    04:00 +14°C° 0 mm 2 mps 718 mmHg 70%
    05:00 +14°C° 0 mm 2 mps 719 mmHg 71%
    06:00 +14°C° 0 mm 1 mps 719 mmHg 73%
    07:00 +14°C° 0 mm 1 mps 719 mmHg 74%
    08:00 +15°C° 0 mm 1 mps 720 mmHg 67%
    09:00 +18°C° 0 mm 1 mps 720 mmHg 61%
    10:00 +20°C° 0 mm 1 mps 720 mmHg 54%
    11:00 +21°C° 0 mm 1 mps 720 mmHg 51%
    12:00 +22°C° 0 mm 1 mps 719 mmHg 47%
    13:00 +23°C° 0 mm 1 mps 719 mmHg 43%
    14:00 +23°C° 0 mm 1 mps 719 mmHg 42%
    15:00 +23°C° 0 mm 1 mps 718 mmHg 41%
    16:00 +21°C° 0 mm 0 mps 718 mmHg 40%
    17:00 +22°C° 0 mm 1 mps 718 mmHg 44%
    18:00 +21°C° 0 mm 1 mps 719 mmHg 47%
    19:00 +19°C° 0 mm 2 mps 719 mmHg 51%
    20:00 +18°C° 0.1 mm 2 mps 719 mmHg 54%
    21:00 +19°C° 0.1 mm 1 mps 719 mmHg 57%
    22:00 +18°C° 0.1 mm 1 mps 719 mmHg 60%
    23:00 +17°C° 0 mm 2 mps 719 mmHg 62%

    Day after tomorrow, 10 December, Tuesday

    Time Temperature Precipitation Wind Pressure Humidity
    00:00 +17°C° 0 mm 2 mps 719 mmHg 63%
    01:00 +17°C° 0 mm 3 mps 719 mmHg 64%
    02:00 +16°C° 0 mm 3 mps 719 mmHg 67%
    03:00 +14°C° 0 mm 3 mps 719 mmHg 70%
    04:00 +14°C° 0 mm 3 mps 718 mmHg 72%
    05:00 +13°C° 0 mm 3 mps 719 mmHg 72%
    06:00 +13°C° 0 mm 3 mps 719 mmHg 72%
    07:00 +13°C° 0 mm 3 mps 720 mmHg 72%
    08:00 +14°C° 0 mm 3 mps 720 mmHg 66%
    09:00 +17°C° 0 mm 3 mps 720 mmHg 60%
    10:00 +18°C° 0 mm 3 mps 721 mmHg 53%
    11:00 +19°C° 0 mm 3 mps 720 mmHg 50%
    12:00 +20°C° 0 mm 3 mps 720 mmHg 47%
    13:00 +21°C° 0 mm 3 mps 719 mmHg 43%
    14:00 +21°C° 0 mm 3 mps 719 mmHg 42%
    15:00 +21°C° 0 mm 3 mps 719 mmHg 42%
    16:00 +21°C° 0 mm 3 mps 718 mmHg 41%
    17:00 +20°C° 0 mm 2 mps 718 mmHg 44%
    18:00 +19°C° 0 mm 2 mps 719 mmHg 47%
    19:00 +19°C° 0 mm 1 mps 719 mmHg 50%
    20:00 +17°C° 0 mm 2 mps 719 mmHg 52%
    21:00 +17°C° 0 mm 2 mps 719 mmHg 55%
    22:00 +17°C° 0 mm 3 mps 719 mmHg 57%
    23:00 +16°C° 0 mm 3 mps 719 mmHg 59%

    11 December, Wednesday

    Time Temperature Precipitation Wind Pressure Humidity
    00:00 +16°C° 0 mm 3 mps 718 mmHg 61%
    01:00 +16°C° 0 mm 3 mps 718 mmHg 63%
    02:00 +16°C° 0 mm 3 mps 718 mmHg 61%
    03:00 +16°C° 0 mm 3 mps 718 mmHg 60%
    04:00 +15°C° 0 mm 2 mps 718 mmHg 58%
    05:00 +15°C° 0.1 mm 2 mps 718 mmHg 57%
    06:00 +15°C° 0.1 mm 2 mps 718 mmHg 55%
    07:00 +15°C° 0.1 mm 2 mps 718 mmHg 53%
    08:00 +16°C° 0 mm 3 mps 718 mmHg 54%
    09:00 +17°C° 0 mm 3 mps 718 mmHg 54%
    10:00 +17°C° 0 mm 3 mps 718 mmHg 54%
    11:00 +18°C° 0.1 mm 3 mps 718 mmHg 52%
    12:00 +19°C° 0.1 mm 3 mps 717 mmHg 49%
    13:00 +19°C° 0.1 mm 4 mps 717 mmHg 47%
    14:00 +18°C° 0.2 mm 4 mps 716 mmHg 54%
    15:00 +15°C° 0.2 mm 5 mps 716 mmHg 62%
    16:00 +14°C° 0.2 mm 5 mps 716 mmHg 69%
    17:00 +14°C° 0 mm 5 mps 716 mmHg 70%
    18:00 +14°C° 0 mm 5 mps 717 mmHg 70%
    19:00 +13°C° 0 mm 6 mps 717 mmHg 71%
    20:00 +13°C° 0 mm 4 mps 717 mmHg 71%
    21:00 +12°C° 0 mm 3 mps 717 mmHg 70%
    22:00 +13°C° 0 mm 1 mps 717 mmHg 70%
    23:00 +13°C° 0 mm 1 mps 717 mmHg 71%

    12 December, Thursday

    Time Temperature Precipitation Wind Pressure Humidity
    00:00 +12°C° 0 mm 1 mps 717 mmHg 72%
    01:00 +12°C° 0 mm 1 mps 717 mmHg 73%
    02:00 +12°C° 0 mm 1 mps 716 mmHg 74%
    03:00 +11°C° 0 mm 1 mps 716 mmHg 76%
    04:00 +11°C° 0 mm 1 mps 716 mmHg 77%
    05:00 +11°C° 0 mm 1 mps 716 mmHg 78%
    06:00 +10°C° 0 mm 1 mps 717 mmHg 78%
    07:00 +10°C° 0 mm 1 mps 717 mmHg 78%
    08:00 +11°C° 0 mm 0 mps 717 mmHg 72%
    09:00 +12°C° 0 mm 0 mps 717 mmHg 65%
    10:00 +14°C° 0 mm 0 mps 718 mmHg 58%
    11:00 +15°C° 0 mm 0 mps 717 mmHg 55%
    12:00 +18°C° 0 mm 1 mps 717 mmHg 51%
    13:00 +19°C° 0 mm 1 mps 716 mmHg 47%
    14:00 +19°C° 0 mm 1 mps 717 mmHg 46%
    15:00 +19°C° 0 mm 1 mps 717 mmHg 44%
    16:00 +18°C° 0 mm 2 mps 717 mmHg 42%
    17:00 +17°C° 0 mm 2 mps 717 mmHg 45%
    18:00 +16°C° 0 mm 2 mps 717 mmHg 48%
    19:00 +15°C° 0 mm 2 mps 718 mmHg 51%
    20:00 +14°C° 0 mm 3 mps 718 mmHg 50%
    21:00 +13°C° 0 mm 3 mps 718 mmHg 49%
    22:00 +13°C° 0 mm 3 mps 718 mmHg 49%
    23:00 +12°C° 0 mm 3 mps 718 mmHg 49%

    13 December, Friday

    Time Temperature Precipitation Wind Pressure Humidity
    00:00 +13°C° 0 mm 2 mps 718 mmHg 50%
    01:00 +12°C° 0 mm 2 mps 718 mmHg 50%
    02:00 +12°C° 0 mm 2 mps 718 mmHg 51%
    03:00 +12°C° 0 mm 2 mps 718 mmHg 53%
    04:00 +11°C° 0 mm 1 mps 718 mmHg 54%
    05:00 +11°C° 0 mm 1 mps 718 mmHg 55%
    06:00 +10°C° 0 mm 1 mps 718 mmHg 55%
    07:00 +10°C° 0 mm 1 mps 718 mmHg 56%
    08:00 +12°C° 0 mm 1 mps 719 mmHg 50%
    09:00 +14°C° 0 mm 2 mps 719 mmHg 44%
    10:00 +16°C° 0 mm 2 mps 719 mmHg 37%
    11:00 +17°C° 0 mm 2 mps 719 mmHg 37%
    12:00 +18°C° 0 mm 3 mps 718 mmHg 37%
    13:00 +19°C° 0 mm 4 mps 718 mmHg 36%
    14:00 +19°C° 0 mm 4 mps 718 mmHg 35%
    15:00 +20°C° 0 mm 4 mps 717 mmHg 34%
    16:00 +20°C° 0 mm 4 mps 717 mmHg 34%
    17:00 +19°C° 0 mm 4 mps 717 mmHg 35%
    18:00 +18°C° 0 mm 4 mps 717 mmHg 37%
    19:00 +17°C° 0 mm 4 mps 717 mmHg 38%
    20:00 +15°C° 0 mm 4 mps 717 mmHg 39%
    21:00 +15°C° 0 mm 5 mps 717 mmHg 40%
    22:00 +15°C° 0 mm 6 mps 717 mmHg 41%
    23:00 +14°C° 0 mm 5 mps 717 mmHg 42%
    Show more